Regional Weather Roundup
Issued by NWS Cleveland, OH

Home | Current Version | Previous Version | Text Only | Print | Product List | Glossary Off
Versions: 1 2 3 4 5 6 7 8 9 10 11 12 13 14 15 16 17 18 19 20 21 22 23 24 25 26 27 28 29 30 31 32 33 34 35 36 37 38 39 40 41 42 43 44 45 46 47 48 49 50

000
ASUS41 KCLE 210610
RWRCLE
OHIO REGIONAL WEATHER ROUNDUP
NATIONAL WEATHER SERVICE WILMINGTON, OH
100 AM EST TUE NOV 21 2017

NOTE: "FAIR" INDICATES FEW OR NO CLOUDS BELOW 12,000 FEET WITH NO
SIGNIFICANT WEATHER AND/OR OBSTRUCTIONS TO VISIBILITY.

OHZ001>008-015>018-024>027-034-035-043-044-210700-
   NORTHWEST OHIO

CITY           SKY/WX    TMP DP  RH WIND       PRES   REMARKS
DEFIANCE       FAIR      36  25  64 S13       29.85F
FINDLAY        FAIR      39  25  57 S14       29.88S
TOLEDO EXPRESS FAIR      41  26  55 SW14G29   29.84F
TOLEDO EXEC    FAIR      39  26  59 S14       29.86F
LIMA           FAIR      40  25  55 S14       29.88S
$$

OHZ009>014-019>023-028>033-038-089-210700-
   NORTHEAST OHIO

CITY           SKY/WX    TMP DP  RH WIND       PRES   REMARKS
CLE-HOPKINS    FAIR      41  23  48 S13G23    29.91F
CLE-LAKEFRONT  FAIR      43  21  41 S22G30    29.87F
CUY CO. ARPT   NOT AVBL
LORAIN-ELYRIA  FAIR      40  20  44 SW14      29.89F
ASHTABULA      FAIR      38  23  55 S15       29.91F
AKRON-CANTON   FAIR      38  22  52 S14       29.94F
WOOSTER        FAIR      36  23  59 S13G22    29.92F
MANSFIELD      FAIR      38  23  55 S17       29.90F
YOUNGSTOWN     FAIR      37  22  54 S10       29.94F
$$

OHZ042-051>053-060>062-070>072-077>081-210700-
  SOUTHWEST OHIO

CITY           SKY/WX    TMP DP  RH WIND       PRES   REMARKS
CINC-COVINGTON FAIR      38  25  59 S10       29.97F
CINC-LUNKEN    FAIR      31  26  82 CALM      30.01F
HAMILTON       FAIR      34  27  75 CALM      29.98F
DAYTON         FAIR      39  25  57 S17       29.93F
WRIGHT-PAT AFB CLEAR     38  22  53 S10       29.94F
DAYTON GENERAL FAIR      37  24  59 S13       29.95F
WILMINGTON     FAIR      36  26  67 S12       29.96F
$$

OHZ036-037-039>041-045>050-054>059-063>069-073>076-082>088-210700-
  CENTRAL AND SOUTHEAST OHIO

CITY           SKY/WX    TMP DP  RH WIND       PRES   REMARKS
COLUMBUS       FAIR      39  24  55 S8        29.96F
OSU AIRPORT    FAIR      35  25  66 S9        29.95F WCI  28
BOLTON FIELD   FAIR      32  25  75 S7        29.97F WCI  25
RICKENBACK AFB FAIR      36  24  64 S10       29.96F
NEWARK         FAIR      29  23  78 CALM      29.97F
MARION         FAIR      38  24  57 S17       29.92F
LANCASTER      FAIR      38  23  55 S8        29.98F
ZANESVILLE     FAIR      33  22  63 S6        30.00F WCI  28
NEW PHILLY     FAIR      39  22  50 S6        29.99F
$$




USA.gov is the U.S. government's official web portal to all federal, state and local government web resources and services.